Home > Weather > Chilliwack > Past weeks

Flag for Canada Weather for the Past 2 Weeks in Chilliwack, British Columbia, Canada

Now
67 °F

Mild.


Feels Like: 67 °F
Forecast: 54 / 62 °F
Wind: 2 mph from Southwest

Location: Agassiz

Current Time: May 3, 2016 at 7:52:27 PM

Latest Report: May 3, 2016 at 7:00 PM


Visibility: N/A

Pressure: 30.02 "Hg

Humidity: 54%

Dew Point: 50 °F

Location of ChilliwackLocation

Historic Weather in Chilliwack — Graph

°F

Chilliwack Temperature Yesterday

Maximum temperature yesterday: 85 °F (at 4:00 PM)
Minimum temperature yesterday: 59 °F (at 6:00 AM)
Average temperature yesterday: 70 °F

High & Low Weather Summary for the Past Weeks

 TemperatureHumidityPressure
High85 °F (May 2, 4:00 PM)97% (Apr 24, 1:00 AM)30.37 "Hg (Apr 24, 1:00 AM)
Low41 °F (Apr 30, 5:00 AM)17% (May 1, 3:00 PM)29.57 "Hg (Apr 22, 5:00 AM)
Average59 °F67%30.00 "Hg
* Reported Apr 18 6:00 PM — May 3 6:00 PM, Chilliwack, Weather by CustomWeather, © 2016

Note: Actual official high and low records may vary slightly from our data, if they occured in-between our weather recording intervals... More about our weather records

Advertising

Chilliwack Weather History for the Previous 24 Hours

Scroll right to see more
 ConditionsComfort  
Time TempWeatherWind HumidityBarometerVisibility
6:00 PM
Tue, May 3
68 °FMild.5 mph51%30.01 "HgN/A
5:00 PM70 °FMild.10 mph53%30.00 "HgN/A
4:00 PM73 °FMild.9 mph52%29.99 "HgN/A
3:00 PM73 °FMild.7 mph45%29.99 "HgN/A
2:00 PM72 °FMild.6 mph47%29.99 "HgN/A
1:00 PM71 °FMild.5 mph51%30.00 "HgN/A
12:00 PM70 °FMild.5 mph47%30.00 "HgN/A
11:00 AM68 °FMild.3 mph44%30.00 "HgN/A
10:00 AM66 °FMild.5 mph52%30.01 "HgN/A
9:00 AM64 °FMild.3 mph51%30.00 "HgN/A
8:00 AM60 °FCool.3 mph65%29.99 "HgN/A
7:00 AM57 °FCool.2 mph65%29.99 "HgN/A
6:00 AM56 °FCool.2 mph68%29.98 "HgN/A
5:00 AM62 °FMild.14 mph46%29.97 "HgN/A
4:00 AM65 °FMild.13 mph43%29.96 "HgN/A
3:00 AM63 °FMild.5 mph51%29.95 "HgN/A
2:00 AM67 °FMild.17 mph39%29.93 "HgN/A
1:00 AM57 °FCool.1 mph75%29.96 "HgN/A
12:00 AM60 °FCool.3 mph65%29.94 "HgN/A
11:00 PM
Mon, May 2
64 °FMild.5 mph58%29.94 "HgN/A
10:00 PM65 °FMild.3 mph60%29.90 "HgN/A
9:00 PM64 °FMild.No wind70%29.88 "HgN/A
8:00 PM73 °FMild.2 mph43%29.87 "HgN/A
7:00 PM81 °FPleasantly warm.2 mph35%29.86 "HgN/A
Weather by CustomWeather, © 2016

See weather overviewHow to use our weather pages